星链-6176 (STARLINK-6176 )

导读

STARLINK-6176是美国SpaceX星链星座中的一颗低轨通信卫星,于2023年5月4日发射升空。它运行在近地轨道,属于星链第二代卫星组网的组成部分,核心任务是为全球提供高速低延迟的卫星互联网服务,尤其覆盖偏远及基础设施薄弱地区。作为星链大规模星座部署中的一员,它进一步拓展了星链网络的覆盖范围与通信容量,同时星链系统也兼顾民用通信与部分特种应用需求,是美国低轨卫星通信网络建设的重要节点。

基本信息
目录编号:
56388
目录名称:
STARLINK-6176
国际标识:
2023-061Q
轨道中心:
EARTH
卫星名称:
星链-6176
卫星全名:
星链-6176 (STARLINK-6176 )
卫星状态:
在轨 (已飞行1137 天)
发射日期:
2023-05-04 UTC
国别 :
美国 (US)
星等 :
--
轨道信息
数据来源 国际轨道数据
星历时间: 2026-06-14T04:43:09+0800
23小时前
查看轨道信息
半长轴: 6861.2km
偏心率: 0.000159
轨道倾角: 43.007°
近地点辐角 277.663°
升交点赤经 15.132°
平近点角 82.404°
近地点: 481.972km
远地点: 484.154km
周期: 94.267分钟
每日圈数: 15.275754
详细信息
固有亮度:
5
最大亮度:
2.5
卫星平台:
Starlink v1.5
覆盖范围:
全球
运营商:
太空探索技术公司
运营商所在国:
美国
制造商(研发单位):
太空探索技术公司
制造商所在国:
美国
使用方式:
暂无
卫星简介
星链(Starlink)计划是由太空探索技术公司(SpaceX)提出的一个巨型低轨卫星互联网星座项目,计划在2019年至2024年间在太空搭建由约1.2万颗卫星组成的“星链”网络,其中1584颗将部署在地球上空550千米处的近地轨道,并从2020年开始工作。该卫星仍在工作。
2D轨道图
3D轨道图
轨道高度分析图
轨道倾角分析图
轨道综合分析图
查看轨道综合分析图